Retour au catalogue

STARLINK-1572

ActifCommunicationsVLEO
NORAD 46060·PAYLOAD·🇺🇸 United States

Lancé Aug 7, 2020 depuis Cape Canaveral Space Force Station

Loading…

Prochains Passages (prochaines 24 heures)

TLE

FraisSource: CelesTrak SupGP

Époque: Sep 14, 2026, 21:18 UTC

1 46060C 20055AK  26257.88798611 -.00015662  00000+0 -50360-3 0  2573
2 46060  53.1577 314.9820 0001077  94.5658 112.1546 15.31712274    19

Suivez STARLINK-1572 en temps réel avec AllMySat

Download on the App Store